• In Deutschland
  • Länderverzeichnis
  • Für 7 Tage
  • Wassertemperatur
  • Satellitenkarten
  • Wetterkarte
  • Widgets
  • user-avatar
    Anmelden

    Stündliche Wetter Borshomi

    Heute, 22 Februar, Donnerstag

    Zeit Temperatur Niederschläge Wind Luftdruck Luftfeuchtigkeit
    00:00 +1°C° 0 mm 2 m/S 664 mmHg 77%
    01:00 +1°C° 0 mm 2 m/S 664 mmHg 77%
    02:00 +1°C° 0 mm 2 m/S 664 mmHg 77%
    03:00 0°C° 0 mm 3 m/S 663 mmHg 75%
    04:00 -1°C° 0 mm 2 m/S 663 mmHg 75%
    05:00 -1°C° 0 mm 2 m/S 663 mmHg 76%
    06:00 -1°C° 0 mm 2 m/S 663 mmHg 76%
    07:00 +1°C° 0 mm 2 m/S 663 mmHg 73%
    08:00 +2°C° 0 mm 2 m/S 663 mmHg 71%
    09:00 +4°C° 0 mm 2 m/S 663 mmHg 68%
    10:00 +5°C° 0 mm 2 m/S 663 mmHg 66%
    11:00 +6°C° 0 mm 2 m/S 663 mmHg 64%
    12:00 +7°C° 0 mm 2 m/S 663 mmHg 62%
    13:00 +8°C° 0 mm 2 m/S 663 mmHg 61%
    14:00 +9°C° 0 mm 1 m/S 663 mmHg 61%
    15:00 +9°C° 0 mm 1 m/S 663 mmHg 59%
    16:00 +8°C° 0 mm 1 m/S 663 mmHg 63%
    17:00 +7°C° 0 mm 1 m/S 663 mmHg 67%
    18:00 +6°C° 0 mm 1 m/S 663 mmHg 71%
    19:00 +5°C° 0 mm 1 m/S 663 mmHg 72%
    20:00 +4°C° 0 mm 1 m/S 663 mmHg 74%
    21:00 +4°C° 0 mm 1 m/S 663 mmHg 75%
    22:00 +3°C° 0 mm 1 m/S 663 mmHg 75%
    23:00 +3°C° 0 mm 1 m/S 663 mmHg 75%

    Morgen, 23 Februar, Freitag

    Zeit Temperatur Niederschläge Wind Luftdruck Luftfeuchtigkeit
    00:00 +3°C° 0 mm 1 m/S 663 mmHg 74%
    01:00 +2°C° 0 mm 1 m/S 663 mmHg 74%
    02:00 +1°C° 0 mm 2 m/S 663 mmHg 73%
    03:00 +1°C° 0 mm 2 m/S 663 mmHg 72%
    04:00 +1°C° 0 mm 2 m/S 663 mmHg 72%
    05:00 +1°C° 0 mm 2 m/S 662 mmHg 71%
    06:00 -1°C° 0 mm 2 m/S 662 mmHg 71%
    07:00 +2°C° 0 mm 2 m/S 662 mmHg 68%
    08:00 +3°C° 0 mm 2 m/S 662 mmHg 65%
    09:00 +4°C° 0 mm 2 m/S 663 mmHg 62%
    10:00 +5°C° 0 mm 2 m/S 662 mmHg 60%
    11:00 +7°C° 0 mm 2 m/S 662 mmHg 57%
    12:00 +8°C° 0 mm 2 m/S 662 mmHg 55%
    13:00 +8°C° 0 mm 2 m/S 662 mmHg 55%
    14:00 +9°C° 0 mm 2 m/S 662 mmHg 54%
    15:00 +9°C° 0 mm 2 m/S 662 mmHg 54%
    16:00 +7°C° 0 mm 2 m/S 662 mmHg 58%
    17:00 +6°C° 0 mm 2 m/S 662 mmHg 62%
    18:00 +6°C° 0 mm 1 m/S 662 mmHg 66%
    19:00 +5°C° 0 mm 1 m/S 662 mmHg 67%
    20:00 +4°C° 0 mm 1 m/S 662 mmHg 68%
    21:00 +4°C° 0 mm 1 m/S 662 mmHg 69%
    22:00 +3°C° 0 mm 1 m/S 662 mmHg 69%
    23:00 +3°C° 0 mm 1 m/S 662 mmHg 69%

    übermorgen, 24 Februar, Samstag

    Zeit Temperatur Niederschläge Wind Luftdruck Luftfeuchtigkeit
    00:00 +3°C° 0 mm 1 m/S 662 mmHg 69%
    01:00 +3°C° 0 mm 1 m/S 662 mmHg 70%
    02:00 +2°C° 0 mm 1 m/S 662 mmHg 70%
    03:00 +2°C° 0 mm 1 m/S 662 mmHg 71%
    04:00 +2°C° 0 mm 1 m/S 662 mmHg 71%
    05:00 +2°C° 0 mm 1 m/S 662 mmHg 72%
    06:00 +1°C° 0 mm 1 m/S 661 mmHg 72%
    07:00 +3°C° 0 mm 1 m/S 662 mmHg 69%
    08:00 +4°C° 0 mm 1 m/S 662 mmHg 67%
    09:00 +5°C° 0 mm 1 m/S 662 mmHg 64%
    10:00 +6°C° 0 mm 1 m/S 662 mmHg 61%
    11:00 +7°C° 0 mm 1 m/S 662 mmHg 58%
    12:00 +9°C° 0 mm 1 m/S 662 mmHg 55%
    13:00 +9°C° 0 mm 1 m/S 661 mmHg 55%
    14:00 +9°C° 0 mm 1 m/S 661 mmHg 55%
    15:00 +9°C° 0 mm 1 m/S 660 mmHg 55%
    16:00 +8°C° 0 mm 1 m/S 660 mmHg 60%
    17:00 +6°C° 0 mm 1 m/S 660 mmHg 64%
    18:00 +5°C° 0 mm 1 m/S 660 mmHg 69%
    19:00 +5°C° 0 mm 1 m/S 660 mmHg 69%
    20:00 +4°C° 0 mm 1 m/S 661 mmHg 70%
    21:00 +3°C° 0 mm 1 m/S 661 mmHg 71%
    22:00 +3°C° 0 mm 1 m/S 661 mmHg 70%
    23:00 +3°C° 0 mm 1 m/S 661 mmHg 69%

    25 Februar, Sonntag

    Zeit Temperatur Niederschläge Wind Luftdruck Luftfeuchtigkeit
    00:00 +2°C° 0 mm 2 m/S 661 mmHg 68%
    01:00 +1°C° 0 mm 2 m/S 660 mmHg 68%
    02:00 +1°C° 0 mm 2 m/S 660 mmHg 68%
    03:00 +1°C° 0 mm 2 m/S 660 mmHg 67%
    04:00 +1°C° 0 mm 2 m/S 660 mmHg 67%
    05:00 +1°C° 0 mm 2 m/S 660 mmHg 66%
    06:00 -1°C° 0 mm 2 m/S 659 mmHg 66%
    07:00 +2°C° 0 mm 2 m/S 659 mmHg 63%
    08:00 +3°C° 0 mm 2 m/S 660 mmHg 60%
    09:00 +4°C° 0 mm 2 m/S 660 mmHg 57%
    10:00 +5°C° 0 mm 2 m/S 659 mmHg 54%
    11:00 +7°C° 0 mm 2 m/S 659 mmHg 51%
    12:00 +8°C° 0 mm 2 m/S 659 mmHg 48%
    13:00 +9°C° 0 mm 2 m/S 659 mmHg 47%
    14:00 +9°C° 0 mm 2 m/S 658 mmHg 47%
    15:00 +9°C° 0 mm 2 m/S 658 mmHg 46%
    16:00 +8°C° 0 mm 2 m/S 658 mmHg 50%
    17:00 +6°C° 0 mm 2 m/S 658 mmHg 55%
    18:00 +5°C° 0 mm 2 m/S 658 mmHg 59%
    19:00 +4°C° 0 mm 2 m/S 658 mmHg 60%
    20:00 +3°C° 0 mm 2 m/S 659 mmHg 61%
    21:00 +3°C° 0 mm 2 m/S 659 mmHg 61%
    22:00 +2°C° 0 mm 2 m/S 659 mmHg 62%
    23:00 +2°C° 0 mm 2 m/S 659 mmHg 63%

    26 Februar, Montag

    Zeit Temperatur Niederschläge Wind Luftdruck Luftfeuchtigkeit
    00:00 +2°C° 0 mm 2 m/S 659 mmHg 63%
    01:00 +3°C° 0 mm 1 m/S 659 mmHg 64%
    02:00 +3°C° 0 mm 1 m/S 659 mmHg 65%
    03:00 +3°C° 0 mm 1 m/S 659 mmHg 65%
    04:00 +3°C° 0 mm 1 m/S 659 mmHg 67%
    05:00 +2°C° 0 mm 1 m/S 659 mmHg 68%
    06:00 +2°C° 0 mm 1 m/S 659 mmHg 69%
    07:00 +3°C° 0,2 mm 1 m/S 659 mmHg 72%
    08:00 +3°C° 0,2 mm 1 m/S 660 mmHg 76%
    09:00 +3°C° 0,2 mm 1 m/S 660 mmHg 79%
    10:00 +3°C° 0,2 mm 2 m/S 660 mmHg 78%
    11:00 +3°C° 0,2 mm 2 m/S 660 mmHg 76%
    12:00 +4°C° 0,2 mm 2 m/S 660 mmHg 74%
    13:00 +4°C° 0,1 mm 2 m/S 660 mmHg 76%
    14:00 +4°C° 0,1 mm 2 m/S 660 mmHg 77%
    15:00 +4°C° 0,1 mm 2 m/S 660 mmHg 78%
    16:00 +3°C° 0 mm 2 m/S 660 mmHg 81%
    17:00 +2°C° 0 mm 2 m/S 660 mmHg 83%
    18:00 +2°C° 0 mm 1 m/S 661 mmHg 86%
    19:00 +2°C° 0 mm 1 m/S 661 mmHg 87%
    20:00 +2°C° 0 mm 1 m/S 661 mmHg 88%
    21:00 +1°C° 0 mm 1 m/S 661 mmHg 89%
    22:00 +1°C° 0 mm 1 m/S 661 mmHg 87%
    23:00 +1°C° 0 mm 1 m/S 661 mmHg 85%

    27 Februar, Dienstag

    Zeit Temperatur Niederschläge Wind Luftdruck Luftfeuchtigkeit
    00:00 +1°C° 0 mm 1 m/S 661 mmHg 83%
    01:00 +1°C° 0 mm 1 m/S 661 mmHg 80%
    02:00 +1°C° 0 mm 1 m/S 661 mmHg 77%
    03:00 -1°C° 0 mm 2 m/S 661 mmHg 74%
    04:00 -1°C° 0 mm 2 m/S 661 mmHg 73%
    05:00 -1°C° 0 mm 2 m/S 661 mmHg 73%
    06:00 -1°C° 0 mm 2 m/S 661 mmHg 72%
    07:00 0°C° 0 mm 3 m/S 661 mmHg 69%
    08:00 +1°C° 0 mm 3 m/S 661 mmHg 67%
    09:00 +3°C° 0 mm 3 m/S 661 mmHg 64%
    10:00 +4°C° 0 mm 4 m/S 661 mmHg 62%
    11:00 +5°C° 0 mm 4 m/S 661 mmHg 60%
    12:00 +6°C° 0 mm 4 m/S 661 mmHg 57%
    13:00 +6°C° 0 mm 4 m/S 661 mmHg 58%
    14:00 +6°C° 0 mm 4 m/S 661 mmHg 58%
    15:00 +6°C° 0 mm 4 m/S 661 mmHg 58%
    16:00 +5°C° 0 mm 4 m/S 661 mmHg 62%
    17:00 +4°C° 0 mm 4 m/S 661 mmHg 66%
    18:00 +3°C° 0 mm 4 m/S 661 mmHg 70%
    19:00 +3°C° 0 mm 3 m/S 661 mmHg 71%
    20:00 +2°C° 0 mm 3 m/S 662 mmHg 72%
    21:00 +2°C° 0 mm 3 m/S 662 mmHg 73%
    22:00 +2°C° 0 mm 3 m/S 662 mmHg 73%
    23:00 +2°C° 0 mm 3 m/S 662 mmHg 74%
    Mehr zeigen